FW3908 Weather Reports


time (UTC)temp
F
wind
direction
speed
knots
gust
knots
rain 1hr
in
rain 24hr
in
rain mn
in
humidity
%
barometer
mb
20260504120230 50 237 1.7 3.5 0.00 0.00 0.00 74 1006.3
20260504100230 47 239 2.6 3.5 0.00 0.00 0.00 78 1006.4
20260504081230 49 247 0.0 0.0 0.00 0.00 0.00 74 1006.4
20260504080229 50 247 0.0 0.9 0.00 0.00 0.00 73 1006.4
20260504070328 52 270 0.9 0.9 0.00 0.00 0.00 70 1007.4
20260504045708 56 273 0.9 2.6 0.00 0.00 0.00 63 1008.3
20260504044808 57 247 0.9 2.6 0.00 0.00 0.00 63 1008.3
20260504040910 59 239 3.5 6.1 0.00 0.00 0.00 59 1008.2
20260504040807 59 244 3.5 6.1 0.00 0.00 0.00 60 1008.3
20260504035808 59 224 2.6 6.1 0.00 0.00 0.00 58 1008.3
20260504034906 59 231 2.6 6.1 0.00 0.00 0.00 59 1008.2
20260504034806 59 233 5.2 7.8 0.00 0.00 0.00 58 1008.2
20260504033808 59 234 4.3 6.1 0.00 0.00 0.00 58 1008.5
20260504032805 60 236 3.5 5.2 0.00 0.00 0.00 57 1008.3
20260504030809 60 232 3.5 6.1 0.00 0.00 0.00 57 1008.6
20260504025907 60 233 3.5 7.8 0.00 0.00 0.00 57 1008.7
20260504025007 60 243 3.5 5.2 0.00 0.00 0.00 57 1008.6
20260504024008 60 236 2.6 7.8 0.00 0.00 0.00 55 1008.7
20260504022008 61 245 1.7 3.5 0.00 0.00 0.00 54 1008.6
20260504021010 61 238 1.7 5.2 0.00 0.00 0.00 54 1008.3
20260504020009 61 226 0.0 3.5 0.00 0.00 0.00 53 1008.5
20260504015008 61 225 2.6 5.2 0.00 0.00 0.00 52 1008.3
20260504014009 62 242 1.7 2.6 0.00 0.00 0.00 50 1008.3
20260504013008 62 247 0.9 2.6 0.00 0.00 0.00 49 1008.3
20260504012009 63 247 1.7 1.7 0.00 0.00 0.00 49 1008.1
20260504011009 63 227 0.9 3.5 0.00 0.00 0.00 49 1007.8
20260504005008 65 237 1.7 3.5 0.00 0.00 0.00 47 1007.8
20260504004009 65 239 2.6 5.2 0.00 0.00 0.00 45 1007.8
20260504003907 65 239 3.5 4.3 0.00 0.00 0.00 45 1007.8
20260504002906 66 241 2.6 4.3 0.00 0.00 0.00 45 1007.8
20260504001922 66 257 3.5 5.2 0.00 0.00 0.00 44 1007.8
20260504001008 67 247 1.7 5.2 0.00 0.00 0.00 44 1007.7
20260503235008 67 265 4.3 7.0 0.00 0.00 0.00 43 1007.7
20260503234008 67 236 5.2 10.4 0.00 0.00 0.00 42 1007.8
20260503233908 67 254 3.5 6.1 0.00 0.00 0.00 41 1007.8
20260503233008 68 257 6.1 9.6 0.00 0.00 0.00 42 1007.7
20260503232909 68 254 5.2 7.8 0.00 0.00 0.00 41 1007.7
20260503231908 67 268 3.5 5.2 0.00 0.00 0.00 41 1007.9
20260503230006 68 276 5.2 8.7 0.00 0.00 0.00 40 1008.1
20260503225922 68 281 5.2 11.3 0.00 0.00 0.00 41 1008.2
20260503225006 68 264 6.1 12.2 0.00 0.00 0.00 40 1008.0
20260503224908 68 259 7.8 12.2 0.00 0.00 0.00 41 1008.0
20260503223909 67 285 7.0 13.0 0.00 0.00 0.00 41 1008.1
20260503222909 68 287 6.1 18.2 0.00 0.00 0.00 40 1008.1
20260503221008 67 235 3.5 7.0 0.00 0.00 0.00 41 1008.0
20260503220107 67 246 5.2 14.8 0.00 0.00 0.00 42 1008.0
20260503215108 67 242 7.8 13.0 0.00 0.00 0.00 42 1008.2
20260503215006 67 231 9.6 13.9 0.00 0.00 0.00 42 1008.3
20260503214008 66 213 8.7 14.8 0.00 0.00 0.00 42 1008.5
20260503213008 66 225 9.6 17.4 0.00 0.00 0.00 42 1008.6
20260503212008 66 235 7.0 15.6 0.00 0.00 0.00 42 1008.6
20260503211908 66 239 7.8 16.5 0.00 0.00 0.00 43 1008.7
20260503210007 65 242 7.0 11.3 0.00 0.00 0.00 43 1009.0
20260503205022 65 261 9.6 23.5 0.00 0.00 0.00 42 1009.2
20260503204008 65 234 11.3 17.4 0.00 0.00 0.00 42 1009.6
20260503203107 63 244 11.3 18.2 0.00 0.00 0.00 43 1009.6
20260503202108 63 221 8.7 16.5 0.00 0.00 0.00 43 1010.0
20260503201108 64 218 9.6 16.5 0.00 0.00 0.00 44 1010.2
20260503200108 63 207 8.7 15.6 0.00 0.00 0.00 48 1010.2
20260503195108 62 223 5.2 9.6 0.00 0.00 0.00 50 1010.3
20260503194108 62 233 6.1 16.5 0.00 0.00 0.00 50 1010.6
20260503193108 61 212 10.4 16.5 0.00 0.00 0.00 51 1011.0
20260503192109 61 224 12.2 16.5 0.00 0.00 0.00 51 1011.2
20260503191205 61 235 5.2 12.2 0.00 0.00 0.00 50 1011.2
20260503190208 60 235 7.8 13.0 0.00 0.00 0.00 49 1011.1
20260503185209 59 216 10.4 18.2 0.00 0.00 0.00 50 1011.1
20260503184306 59 218 8.7 13.0 0.00 0.00 0.00 49 1011.2
20260503184207 59 236 7.0 12.2 0.00 0.00 0.00 49 1011.2
20260503184108 59 212 8.7 15.6 0.00 0.00 0.00 49 1011.2
20260503183107 59 222 12.2 23.5 0.00 0.00 0.00 51 1011.4
20260503182108 58 231 10.4 17.4 0.00 0.00 0.00 51 1011.4
20260503181107 58 231 11.3 17.4 0.00 0.00 0.00 52 1011.8
20260503180207 58 238 7.8 14.8 0.00 0.00 0.00 54 1012.1
20260503180106 58 213 7.0 18.2 0.00 0.00 0.00 54 1012.2
20260503175109 57 208 7.8 14.8 0.00 0.00 0.00 54 1012.3
20260503174207 57 189 6.1 13.0 0.00 0.00 0.00 54 1012.3
20260503173208 57 212 8.7 20.0 0.00 0.00 0.00 56 1013.0
20260503172207 56 211 9.6 14.8 0.00 0.00 0.00 57 1013.1
20260503171208 56 213 7.0 19.1 0.00 0.00 0.00 61 1013.3
20260503170306 55 213 4.3 7.8 0.00 0.00 0.00 62 1013.8
20260503150422 54 251 5.2 10.4 0.00 0.00 0.00 56 1015.7
20260503150307 54 267 7.8 16.5 0.00 0.00 0.00 57 1015.6
20260503140308 50 229 3.5 7.8 0.00 0.01 0.00 62 1015.8
20260503130607 48 245 7.0 10.4 0.00 0.01 0.00 61 1016.3